www.pogodaiklimat.ru

Погода и климат >> Архив погоды >> Венгрия >> Сольнок


ПОГОДА в Сольноке

  • Прогноз погоды в Сольноке
  • Монитор погоды в Сольноке

АРХИВ ПОГОДЫ в Сольноке

Время (UTC), дата Ветер
(напр.,м/с)
 
Видим.   Явления Облачность Т
(С)
Тd
(С)
f
(%)
Тe
(С)
Тes
(С)
Комфортность P
(гПа)
Po
(гПа)
Тmin
(С)
Tmax
(С)
R
(мм)
R24
(мм)
S
(см)
13 18.08 Ю 5
{8}
н/о н/о +28.8 +12.3 36 +30 +30 жарко 1014.9 1004.5
14 18.08 Ю 5
{9}
н/о н/о +29.3 +12.3 35 +30 +30 жарко 1014.5 1004.2
15 18.08 Ю 5
{8}
30 км ясно +29.6 +12.1 34 +30 +30 жарко 1014.2 1003.9
16 18.08 Ю 5
{7}
н/о н/о +29.2 +12.2 35 +30 +30 жарко 1014.0 1003.7
17 18.08 Ю 3
{7}
н/о н/о +27.4 +13.0 41 +29 +29 жарко 1014.1 1003.7
18 18.08 ЮЗ 2 30 км ясно +25.0 +12.9 47 +27 +27 жарко 1014.4 1003.9 +29.8 0
19 18.08 Ю 2 н/о н/о +23.0 +13.2 54 +26 +26 жарко 1014.9 1004.3
20 18.08 ЮЗ 2 н/о н/о +22.5 +12.5 53 +25 +25 комфорт 1015.1 1004.5
21 18.08 ЮЗ 2 н/о н/о +22.2 +13.0 56 +25 +25 комфорт 1015.2 1004.6
22 18.08 ЮЗ 2 н/о н/о +21.1 +12.3 57 +23 +23 комфорт 1015.3 1004.7
23 18.08 Ю 1 н/о н/о +19.5 +13.2 67 +22 +22 комфорт 1015.3 1004.6
00 19.08 Ю 3 н/о н/о +18.4 +12.8 70 +19 +19 1015.3 1004.6
01 19.08 Ю 1 н/о н/о +18.2 +12.6 70 +20 +20 1015.4 1004.7
02 19.08 Ю 1 н/о н/о +17.1 +13.6 80 +18 +18 1015.8 1005.0
03 19.08 ЮВ 1 20 км 1/0
[Ac cast Ci sp]
+15.8 +13.3 85 +16 +16 1016.0 1005.2
04 19.08 ЮВ 1 н/о н/о +15.3 +13.5 89 +16 +16 1016.6 1005.7
05 19.08 Ю 1 н/о н/о +18.1 +14.6 80 +19 +19 1016.8 1006.0
06 19.08 Ю 2 25 км 4/0
[Ac cast Ci sp]
+21.4 +14.6 65 +24 +24 комфорт 1016.8 1006.2 +14.8 0
07 19.08 Ю 2 н/о н/о +24.4 +14.5 54 +27 +27 жарко 1016.8 1006.3
08 19.08 Ю 3 н/о н/о +27.4 +13.7 43 +29 +29 жарко 1016.8 1006.4
09 19.08 Ю 3 н/о н/о +28.7 +13.8 40 +31 +31 жарко 1017.0 1006.6
10 19.08 Ю 2 н/о н/о +30.2 +13.1 35 +31 +31 жарко 1017.0 1006.7
11 19.08 Ю 3 н/о н/о +31.4 +13.2 33 +32 +32 жарко 1016.4 1006.1
12 19.08 Ю 2 30 км 3/0
[Ci sp]
+31.8 +12.6 31 +32 +32 жарко 1016.4 1006.1
13 19.08 ЮЗ 4 н/о н/о +32.6 +11.2 27 +32 +32 жарко 1016.3 1006.1
14 19.08 Ю 3 н/о н/о +32.6 +11.2 27 +32 +32 жарко 1016.2 1006.0
15 19.08 Ю 2 н/о н/о +32.4 +13.1 31 +33 +33 жарко 1016.0 1005.8
16 19.08 Ю 2 н/о н/о +31.9 +13.2 32 +33 +33 жарко 1015.8 1005.5
17 19.08 Ю 2 н/о н/о +29.5 +15.2 42 +32 +32 душно 1015.8 1005.5
18 19.08 ЮВ 1 30 км ясно +26.2 +15.3 51 +29 +29 жарко 1015.9 1005.4 +33.1 0
19 19.08 штиль 0 н/о н/о +24.3 +15.0 56 +27 +27 жарко 1016.3 1005.8
20 19.08 штиль 0 н/о н/о +22.2 +15.8 67 +26 +26 душно 1016.7 1006.1
21 19.08 З 1
{58}
н/о н/о +21.3 +16.3 73 +25 +25 комфорт 1017.3 1006.7
22 19.08 В 1 н/о н/о +20.2 +16.6 80 +24 +24 комфорт 1017.4 1006.7
23 19.08 Ю 1 н/о н/о +19.9 +15.1 74 +23 +23 комфорт 1017.2 1006.5
00 20.08 штиль 0 н/о н/о +19.0 +16.0 83 +20 +20 1017.4 1006.7
01 20.08 штиль 0 н/о н/о +18.1 +16.1 88 +18 +18 1017.4 1006.6
02 20.08 штиль 0 н/о н/о +18.0 +15.8 87 +18 +18 1017.6 1006.8
03 20.08 З 1 30 км 3/0
[Ci sp]
+17.0 +15.3 90 +18 +18 1017.8 1007.0
04 20.08 СВ 1 н/о н/о +16.4 +15.8 96 +17 +17 1018.5 1007.7
05 20.08 штиль 0 н/о н/о +20.3 +18.4 89 +24 +24 комфорт 1018.6 1007.9
06 20.08 штиль 0 30 км 1/0
[Ci sp]
+23.7 +17.7 69 +28 +28 душно 1018.7 1008.1 +16.2 0
07 20.08 штиль 0 н/о н/о +26.8 +15.5 50 +30 +30 душно 1018.7 1008.2
08 20.08 ЮВ 1 н/о н/о +28.7 +15.9 46 +32 +32 душно 1018.9 1008.5
09 20.08 ЮВ 1 30 км 1/0
[Ci sp]
+30.8 +17.1 44 +35 +35 очень
душно
1018.7 1008.4
10 20.08 Ю 2 н/о н/о +32.7 +16.1 37 +35 +35 душно 1018.6 1008.3
11 20.08 ЮВ 2 н/о н/о +33.0 +15.1 34 +35 +35 душно 1018.4 1008.1
12 20.08 ЮВ 1 30 км 3/1 2000 м
[Cu hum Ci sp]
+34.3 +15.2 32 +36 +36 душно 1018.0 1007.8
13 20.08 З 1 н/о н/о +34.4 +14.8 31 +36 +36 душно 1017.8 1007.6
14 20.08 Ю 2 н/о н/о +34.1 +14.6 31 +36 +36 душно 1017.7 1007.5
15 20.08 нст 2 30 км 1/1 2000 м
[Cu hum Ci sp]
+34.2 +13.6 29 +35 +39 очень
жарко
1017.5 1007.5
16 20.08 штиль 0 н/о н/о +33.7 +13.7 30 +35 +35 очень
жарко
1017.4 1007.2
17 20.08 ЮВ 1 н/о н/о +32.1 +16.0 38 +35 +35 очень
душно
1017.2 1007.1
18 20.08 В 2 30 км ясно +28.6 +16.8 49 +32 +32 душно 1017.5 1007.1 +34.9 0
19 20.08 штиль 0 н/о н/о +25.9 +15.9 54 +29 +29 душно 1017.8 1007.3
20 20.08 штиль 0 н/о н/о +24.2 +17.0 64 +28 +28 душно 1017.7 1007.2
21 20.08 штиль 0 н/о н/о +23.6 +18.0 71 +28 +28 душно 1017.9 1007.3
22 20.08 ЮВ 2 н/о н/о +22.6 +15.9 66 +27 +27 душно 1017.9 1007.3
23 20.08 ЮВ 3 н/о н/о +23.6 +15.4 60 +27 +27 жарко 1017.6 1007.0
00 21.08 Ю 3 30 км 1/0
[Ci sp]
+22.9 +15.0 61 +27 +27 душно 1017.5 1006.9
01 21.08 штиль 0 н/о н/о +21.6 +15.2 67 +25 +25 комфорт 1017.7 1007.1
02 21.08 Ю 3 н/о н/о +21.6 +15.0 66 +25 +25 комфорт 1018.0 1007.4
03 21.08 ЮЗ 1 н/о н/о +20.4 +15.0 71 +24 +24 комфорт 1017.9 1007.2
04 21.08 штиль 0 н/о н/о +19.7 +15.4 76 +22 +22 комфорт 1018.5 1007.8
05 21.08 штиль 0 н/о н/о +22.1 +18.1 78 +27 +27 душно 1018.9 1008.3
06 21.08 Ю 1 30 км 1/0
[Ci sp]
+23.9 +16.9 65 +28 +28 душно 1019.5 1008.9 +19.2 0
07 21.08 СЗ 2 н/о н/о +26.2 +16.7 56 +30 +30 душно 1019.7 1009.2
08 21.08 СЗ 3 н/о н/о +27.0 +17.8 57 +31 +31 душно 1020.0 1009.5
09 21.08 СЗ 3 30 км 3/0
[Ac cast Cc]
+29.0 +18.2 52 +34 +34 очень
душно
1020.0 1009.6
10 21.08 С 3 н/о н/о +30.3 +17.4 46 +34 +34 очень
душно
1019.9 1009.5
11 21.08 С 2 н/о н/о +31.5 +18.1 45 +36 +36 очень
душно
1019.5 1009.2
12 21.08 С 1 30 км 1/1 1500 м
[Cu hum Ci sp]
+32.4 +17.8 42 +37 +37 очень
душно
1019.2 1008.9
13 21.08 СЗ 3 н/о н/о +32.6 +18.0 42 +37 +37 очень
душно
1018.9 1008.6
14 21.08 З 4
{12}
н/о н/о +32.6 +18.0 42 +37 +37 очень
душно
1018.6 1008.3
15 21.08 СЗ 5
{9}
30 км 1/1 1500 м
[Cu hum]
+32.1 +18.3 44 +37 +37 очень
душно
1018.8 1008.5
16 21.08 СЗ 6
{8}
н/о н/о +30.4 +17.8 47 +35 +35 очень
душно
1018.9 1008.6
17 21.08 СЗ 5
{8}
н/о н/о +28.8 +17.3 50 +33 +33 очень
душно
1019.1 1008.7
18 21.08 СЗ 5
{9}
30 км 1/0
[Ci sp]
+26.6 +16.5 54 +30 +30 душно 1020.0 1009.5 +33.4 0
19 21.08 С 5
{9}
н/о н/о +24.4 +15.3 57 +27 +27 жарко 1021.5 1010.9
20 21.08 С 3
{9}
н/о н/о +22.1 +17.0 73 +27 +27 душно 1021.9 1011.2
21 21.08 СВ 4
{7}
30 км 1/0
[Ci sp]
+20.5 +16.5 78 +24 +24 комфорт 1022.3 1011.6
22 21.08 СВ 5
{7}
н/о н/о +19.6 +16.1 80 +21 +21 комфорт 1022.7 1011.9
23 21.08 СВ 5
{7}
н/о н/о +18.9 +14.2 74 +20 +20 1022.8 1012.0
00 22.08 СВ 5
{7}
30 км 3/3 2000 м
[Sc]
+18.2 +13.7 75 +18 +18 1022.6 1011.8
01 22.08 СВ 5
{8}
н/о н/о +18.1 +13.4 74 +18 +18 1022.6 1011.8
02 22.08 СВ 5
{8}
н/о н/о +17.8 +13.3 75 +17 +17 1022.7 1011.9
03 22.08 СВ 4
{7}
30 км 4/0
[Ci sp]
+17.4 +13.7 79 +17 +17 1022.7 1011.9
04 22.08 С 3 н/о н/о +16.8 +14.3 85 +17 +17 1023.2 1012.3
05 22.08 СВ 4
{7}
н/о н/о +18.3 +14.4 78 +19 +19 1023.3 1012.5
06 22.08 СВ 5
{8}
30 км 5/0
[Ac cast Ci sp]
+19.4 +14.4 73 +21 +21 комфорт 1023.4 1012.6 +16.7 0
07 22.08 С 5
{7}
н/о н/о +21.2 +14.8 67 +24 +24 комфорт 1023.5 1012.8
08 22.08 СВ 6
{8}
н/о н/о +23.0 +15.1 61 +27 +27 душно 1023.3 1012.7
09 22.08 С 6
{9}
30 км 5/0
[Ac cast Ci sp]
+23.1 +14.9 60 +27 +27 душно 1023.4 1012.8
10 22.08 С 4
{8}
н/о н/о +25.0 +15.3 55 +28 +28 жарко 1023.3 1012.7
11 22.08 СВ 4
{7}
н/о н/о +26.1 +16.1 54 +29 +29 жарко 1022.7 1012.2
12 22.08 СВ 4
{7}
30 км 6/0
[Ci sp]
+27.1 +16.4 52 +31 +31 душно 1022.4 1011.9 0.2
13 22.08 С 4 н/о н/о +28.2 +16.8 50 +32 +32 душно 1022.0 1011.5
14 22.08 С 5
{7}
н/о н/о +28.4 +17.3 51 +32 +32 душно 1021.6 1011.2
15 22.08 С 5
{8}
30 км 5/0
[Ci sp]
+27.7 +17.0 52 +32 +32 очень
душно
1021.9 1011.4
16 22.08 СВ 6
{8}
н/о н/о +27.3 +17.5 55 +31 +31 душно 1021.6 1011.1
17 22.08 СВ 4
{7}
н/о н/о +24.9 +17.1 62 +29 +29 душно 1021.9 1011.3
18 22.08 СВ 4 30 км 8/0
[Cs]
+23.8 +15.8 61 +27 +27 жарко 1022.2 1011.6 +29.0 0.2 0
19 22.08 СВ 4 н/о н/о +22.5 +15.4 64 +26 +26 жарко 1022.7 1012.0
20 22.08 СВ 4 н/о н/о +21.4 +14.8 66 +24 +24 комфорт 1023.2 1012.5
21 22.08 СВ 4 30 км 5/0
[Ci sp]
+20.3 +14.4 69 +23 +23 комфорт 1023.1 1012.4
22 22.08 СВ 3 н/о н/о +19.2 +14.7 75 +21 +21 комфорт 1023.2 1012.4
23 22.08 СВ 3 н/о н/о +18.4 +15.1 81 +19 +19 1023.3 1012.5
00 23.08 С 3 30 км 4/0
[Ci sp]
+18.0 +15.4 85 +18 +18 1023.0 1012.2
01 23.08 С 2 н/о н/о +17.5 +16.2 92 +18 +18 1023.0 1012.2
02 23.08 С 3 н/о н/о +17.5 +15.5 88 +17 +17 1023.0 1012.2
03 23.08 С 3 30 км 3/0
[Ci sp]
+17.4 +15.2 87 +17 +17 1023.1 1012.5
04 23.08 СВ 4 н/о н/о +17.9 +15.3 85 +18 +18 1023.4 1012.6
05 23.08 С 2 н/о н/о +19.2 +16.1 82 +21 +21 комфорт 1023.8 1013.0
06 23.08 СВ 3 30 км 9/0
[Cs]
+19.9 +16.0 78 +23 +23 комфорт 1024.2 1013.4 +16.9 0
07 23.08 СВ 4 н/о н/о +23.1 +16.6 67 +28 +28 душно 1023.9 1013.3
08 23.08 СВ 5
{8}
н/о н/о +25.1 +17.6 63 +29 +29 душно 1023.8 1013.2
09 23.08 СВ 5
{9}
30 км 8/0
[Cs]
+27.0 +17.2 55 +31 +31 душно 1023.5 1013.0
10 23.08 СВ 5
{8}
н/о н/о +28.7 +15.9 46 +32 +32 душно 1023.0 1012.6
11 23.08 СВ 5
{7}
н/о н/о +29.9 +16.0 43 +33 +33 душно 1022.8 1012.4
12 23.08 СВ 4
{8}
30 км 9/0
[Cs]
+30.3 +16.7 44 +34 +34 очень
душно
1022.5 1012.1
13 23.08 СВ 4
{8}
н/о н/о +30.3 +17.7 47 +35 +35 очень
душно
1022.1 1011.7
14 23.08 С 5
{7}
н/о н/о +30.1 +17.2 46 +34 +34 очень
душно
1021.7 1011.3
15 23.08 С 5
{8}
30 км 9/0
[Cs]
+30.1 +16.9 45 +34 +34 очень
душно
1021.4 1011.0
16 23.08 СВ 2
{7}
н/о н/о +28.9 +16.5 47 +32 +32 душно 1021.2 1010.8
17 23.08 СВ 4
{7}
н/о н/о +26.6 +17.1 56 +31 +31 душно 1021.4 1010.9
18 23.08 СВ 3 30 км 9/0
[Cs]
+24.4 +17.2 64 +28 +28 душно 1021.8 1011.2 +30.7 0
19 23.08 СВ 2 н/о н/о +23.0 +16.8 68 +28 +28 душно 1022.1 1011.5
20 23.08 С 3 н/о н/о +23.0 +17.2 70 +28 +28 душно 1022.0 1011.4
21 23.08 СВ 3 30 км 8/0
[Ci sp]
+22.1 +16.8 72 +26 +26 душно 1021.7 1011.0
22 23.08 СВ 3 н/о н/о +21.0 +18.0 83 +26 +26 душно 1021.8 1011.1
23 23.08 СВ 3 н/о н/о +20.2 +18.5 90 +24 +24 комфорт 1021.7 1011.0
00 24.08 СВ 3 20 км 4/0
[Ci sp]
+19.5 +17.6 89 +22 +22 комфорт 1021.7 1010.9
01 24.08 С 3 н/о н/о +19.4 +18.1 92 +22 +22 комфорт 1021.7 1010.9
02 24.08 С 2 н/о н/о +18.6 +17.9 96 +20 +20 1021.6 1010.8
03 24.08 СВ 3 20 км 5/0
[Ci sp]
+18.5 +18.0 97 +20 +20 1021.5 1010.7
04 24.08 СВ 3 н/о н/о +18.5 +17.9 96 +20 +20 1021.6 1010.8
05 24.08 СВ 4 н/о н/о +20.3 +17.3 83 +24 +24 комфорт 1021.6 1010.9
06 24.08 СВ 5
{8}
30 км 8/0
[Cs]
+21.8 +17.6 77 +26 +26 душно 1021.7 1011.0 +18.1 0
07 24.08 В 5
{7}
н/о н/о +23.3 +17.5 70 +29 +29 душно 1021.5 1010.9
08 24.08 В 4 н/о н/о +25.7 +17.9 62 +30 +30 душно 1021.5 1011.0
09 24.08 СВ 3 30 км 9/0
[Cs]
+27.5 +17.9 56 +32 +32 очень
душно
1021.4 1010.9
10 24.08 ЮВ 3 н/о н/о +30.3 +18.1 48 +35 +35 очень
душно
1021.0 1010.6
11 24.08 СВ 1 н/о н/о +31.0 +17.7 45 +35 +35 очень
душно
1020.5 1010.2
12 24.08 ЮВ 2 30 км 6/1 1500 м
[Cu hum Ci sp]
+31.7 +16.8 41 +35 +35 очень
душно
1019.9 1009.6
13 24.08 СВ 3
{7}
н/о н/о +32.9 +17.9 41 +37 +37 очень
душно
1019.5 1009.2
14 24.08 В 2
{8}
н/о н/о +31.5 +16.3 40 +34 +34 душно 1019.0 1008.7
15 24.08 С 2 30 км 6/5 1500 м
[Cu med, cong Ci sp]
+32.2 +16.9 40 +36 +36 очень
душно
1018.6 1008.3
16 24.08 Ю 1
{12}
н/о н/о +25.8 +21.7 78 +33 +33 очень
душно
1019.3 1008.8
17 24.08 С 1 н/о н/о +26.7 +23.4 82 +36 +36 очень
душно
1019.0 1008.5
18 24.08 СВ 2 30 км {гроза, ливн. осадки} 8/3 1500 м
[Cu med, cong Ac cuf Ci ing]
+25.4 +20.4 74 +31 +31 очень
душно
1019.1 1008.6 +33.1 0.9 0
19 24.08 СВ 2 н/о н/о +24.2 +19.3 74 +29 +29 душно 1019.2 1008.6
20 24.08 СВ 3 н/о н/о +23.2 +19.2 78 +30 +30 очень
душно
1019.2 1008.6
21 24.08 СВ 3 30 км 3/0
[Ci sp]
+22.7 +19.5 82 +29 +29 очень
душно
1019.4 1008.8
22 24.08 В 3 н/о н/о +22.4 +19.4 83 +28 +28 душно 1019.3 1008.7
23 24.08 В 3 н/о н/о +21.9 +18.9 83 +27 +27 душно 1019.2 1008.6
01 25.08 В 3 н/о н/о +20.8 +19.1 90 +26 +26 душно 1018.8 1008.1
02 25.08 В 3 н/о н/о +20.2 +19.2 94 +24 +24 комфорт 1018.7 1008.0
03 25.08 СВ 2 20 км 3/0
[Ci sp]
+19.4 +19.1 98 +22 +22 комфорт 1018.8 1008.1
04 25.08 СВ 3 н/о н/о +19.3 +19.3 100 +22 +22 комфорт 1019.2 1008.5
05 25.08 В 2 н/о н/о +20.3 +19.1 93 +25 +25 комфорт 1019.8 1009.1
06 25.08 В 2 15 км в посл. час гроза {ливн. осадки} 8/4 1200 м
[Cu med, cong Ac cast Ci sp]
+21.6 +20.4 93 +27 +27 душно 1019.6 1008.9 +18.8 6 0
07 25.08 СВ 1 н/о н/о +23.8 +20.1 80 +29 +29 душно 1020.0 1009.4
08 25.08 СВ 1 н/о н/о +25.9 +19.8 69 +32 +32 очень
душно
1020.2 1009.7
09 25.08 Ю 1 20 км 5/1 1200 м
[Cu med, cong Ac cast Ci sp]
+28.1 +19.3 59 +34 +34 очень
душно
1020.1 1009.7
10 25.08 ЮЗ 3 н/о н/о +29.3 +17.5 49 +33 +33 душно 1019.8 1009.4
11 25.08 Ю 3 н/о н/о +30.7 +16.7 43 +34 +34 очень
душно
1019.5 1009.2
12 25.08 З 2 30 км 8/4 1500 м
[Cb calv Ac cast Ci sp]
+31.4 +17.3 43 +35 +35 очень
душно
1019.1 1008.8
13 25.08 ЮВ 4
{8}
н/о н/о +30.1 +16.2 43 +33 +33 душно 1019.1 1008.7

 

Местоположение метеостанции Сольнок (Венгрия): широта 47.12 долгота 20.23 высота над уровнем моря 94 м.

В архиве по умолчанию представлена погода в Сольноке за последнюю неделю. Архивные данные за месяц целиком и за предыдущие месяцы, начиная с января 2011 года, Вы можете получить, выбрав интересующий диапазон дат из раскрывающегося списка и нажав кнопку "Ввод!".


*Определитесь, кто Вы:
робот инопланетянин человек

Внимание! Время в таблицах - всемирное. Для получения местного времени необходимо прибавить поправку, которая равна 1 ч.

Смотрите также архив погоды в соседних городах и на ближайших метеорологических станциях:

Погода в Кечкемете (Венгрия) (43 км)
Погода в Порозло (Венгрия) (66 км)
Погода на Кекеше (Венгрия) (85 км)
Погода в Будапеште (Венгрия) (86 км)
Погода в Бекешчабе (Венгрия) (87 км)
Погода в Эгере (Венгрия) (87 км)
Погода в Сегеде (Венгрия) (97 км)
Погода в Дебрецене (Венгрия) (111 км)
Погода в Мишкольце (Венгрия) (116 км)
Погода в Кишинеу-Криш (Румыния) (119 км)

Пояснения к столбцам:

Ветер - указаны скорость ветра в м/с - средняя за 10 мин, порывы в срок и между сроками (в фигурных скобках) и направление, откуда дует ветер: С - северный, СВ - северо-восточный, В - восточный, ЮВ - юго-восточный, Ю - южный, ЮЗ - юго-западный, З - западный, СЗ - северо-западный.
Видимость - горизонтальная дальность видимости в метрах или километрах. При видимости от 1 до 10 км при отсутствии осадков обычно наблюдается дымка, при ухудшении видимости до 1 км и менее - туман. В сухую погоду видимость может ухудшаться дымом, пылью или мглою.
Явления - указаны атмосферные явления, наблюдавшиеся в срок или в последний час перед сроком; фигурными скобками обозначены явления, наблюдавшиеся между сроками (за 1-3 часа до срока); квадратными скобками обозначены град или гололедные отложения с указанием их диаметра в мм.
Облачность - указаны через наклонную черту общая и нижняя облачность в баллах и высота нижней границы облаков в метрах; квадратными скобками обозначены формы облаков: Ci - перистые, Cs - перисто-слоистые, Cc - перисто-кучевые, Ac - высококучевые, As - высокослоистые, Sc - слоисто-кучевые, Ns - слоисто-дождевые, Cu - кучевые, Cb - кучево-дождевые. Подробнее классификацию облаков см. в Атласе облаков (PDF).
T - Температура воздуха - температура, измеренная на высоте 2 м над землей.
Td - Температура точки росы - температура, при понижении до которой содержащийся в воздухе водяной пар достигнет насыщения.
f - Относительная влажность воздуха - влажноcть воздуха, измеренная на высоте 2 м над землей.
Te - Эффективная температура - температура, которую ощущает одетый по сезону человек в тени. Характеристика душности погоды. При расчете учитывается влияние влажности воздуха и скорости ветра на теплоощущения человека.
Tes - Эффективная температура на солнце - температура, которую ощущает человек, с поправкой на солнечный нагрев. Характеристика знойности погоды. Зависит от высоты солнца над горизонтом, облачности и скорости ветра. Ночью, в пасмурную погоду, а также при ветре 12 м/с и более поправка равна нулю.
P - Атмосферное давление - приведенное к уровню моря атмосферное давление.
Po - Атмосферное давление - измеренное на уровне метеостанции атмосферное давление.
Tmin - Минимальная температура - минимум температуры воздуха на высоте 2 м над землей.
Tmax - Максимальная температура - максимум температуры воздуха на высоте 2 м над землей.
R - Количество осадков - Количество выпавших осадков за период времени, мм. При наведении курсора мыши на число - период времени, за который выпало указанное количество осадков.
R24 - Количество осадков - Количество выпавших осадков за 24 часа, мм.
S - Снежный покров - Высота снежного покрова, см. При наведении курсора мыши на число - состояние снежного покрова и степень покрытия местности в баллах.